Location: Bakov nad Jizerou
(50.4784°N, 14.9394°E)
Time: 19:03:11
(UTC+00:00)

Cosmos 1703 - Pass Details

Date: 31 October 2021
Orbit: 521 x 539 km, 82.5° (Epoch: 01 December)

Event Time Altitude Azimuth Distance (km) Brightness Sun altitude
Rises 17:00:40 0° 331° (NNW) 2,679 7.2 -13.7°
Reaches altitude 10° 17:04:07 10° 298° (WNW) 1,777 6.8 -14.2°
Maximum altitude 17:05:29 12° 278° (W) 1,670 7.0 -14.4°
Drops below altitude 10° 17:06:51 10° 257° (WSW) 1,768 7.3 -14.6°
Sets 17:10:16 0° 224° (SW) 2,646 7.6 -15.2°
